Weather History for Great Bend, KS

Change the Weather History Date:

Wednesday, May 22, 2013

  Actual Average Record
Temperature  
Mean Temperature 62 °F -  
Max Temperature 78 °F 80 °F 100 °F (1966)
Min Temperature 46 °F 55 °F 42 °F (2001)
Degree Days  
Heating Degree Days 3    
Growing Degree Days 12 (Base 50)    
Moisture  
Dew Point 44 °F    
Average Humidity 56    
Maximum Humidity 82    
Minimum Humidity 28    
Precipitation  
Precipitation 0.00 in - - ()
Sea Level Pressure  
Sea Level Pressure 29.90 in    
Wind  
Wind Speed 9 mph (NNW)    
Max Wind Speed 17 mph    
Max Gust Speed 24 mph    
Visibility 10 miles    
Events      
Averages and records for this station are not official NWS values.
T = Trace of Precipitation, MM = Missing Value Source: NWS Daily Summary

Daily Weather History Graph

Daily Weather History Graph

Search for Another Location

Airport:

Trip Planner

Search our weather history database for the weather conditions in past years. The results will help you decide how hot, cold, wet, or windy it might be!

Date:

Astronomy

May. 22, 2013 Rise Set
Actual Time 6:18 AM CDT 8:46 PM CDT
Civil Twilight 5:48 AM CDT 9:16 PM CDT
Nautical Twilight 5:10 AM CDT 9:54 PM CDT
Astronomical Twilight 4:29 AM CDT 10:35 PM CDT
Moon 6:11 PM CDT (5/22) 4:21 AM CDT (5/22)
Length of Visible Light 15h 28m
Length of Day
14h 27m
Waxing Gibbous, 91% of the Moon is Illuminated
May 22
Waxing Gibbous
May 24
Full
May 31
Last Quarter
Jun 8
New
Jun 16
First Quarter

Hourly Weather History & Observations

Time (CDT) Temp. Windchill Dew Point Humidity Pressure Visibility Wind Dir Wind Speed Gust Speed Precip Events Conditions
12:15 AM 50.0 °F - 39.2 °F 66% 29.86 in 10.0 mi WNW 8.1 mph - N/A   Clear
12:35 AM 48.2 °F - 39.2 °F 71% 29.86 in 10.0 mi West 6.9 mph - N/A   Clear
12:55 AM 48.2 °F - 39.2 °F 71% 29.87 in 10.0 mi WNW 6.9 mph - N/A   Clear
1:15 AM 46.4 °F 42.9 °F 39.2 °F 76% 29.87 in 10.0 mi West 6.9 mph - N/A   Clear
1:35 AM 48.2 °F - 41.0 °F 76% 29.87 in 10.0 mi WNW 6.9 mph - N/A   Clear
1:55 AM 48.2 °F - 41.0 °F 76% 29.87 in 10.0 mi WNW 8.1 mph - N/A   Clear
2:15 AM 46.4 °F 42.4 °F 41.0 °F 81% 29.86 in 10.0 mi WNW 8.1 mph - N/A   Clear
2:35 AM 46.4 °F 42.9 °F 41.0 °F 81% 29.86 in 10.0 mi WNW 6.9 mph - N/A   Clear
2:55 AM 48.2 °F - 41.0 °F 76% 29.87 in 10.0 mi NW 6.9 mph - N/A   Clear
3:15 AM 50.0 °F - 42.8 °F 76% 29.86 in 10.0 mi NW 8.1 mph - N/A   Scattered Clouds
3:35 AM 50.0 °F - 42.8 °F 76% 29.87 in 10.0 mi NW 6.9 mph - N/A   Partly Cloudy
3:55 AM 48.2 °F - 42.8 °F 82% 29.88 in 10.0 mi NW 5.8 mph - N/A   Clear
4:15 AM 48.2 °F - 42.8 °F 82% 29.88 in 10.0 mi NW 6.9 mph - N/A   Clear
4:35 AM 48.2 °F - 42.8 °F 82% 29.88 in 10.0 mi NW 6.9 mph - N/A   Clear
4:55 AM 48.2 °F - 42.8 °F 82% 29.89 in 10.0 mi NNW 6.9 mph - N/A   Clear
5:15 AM 50.0 °F - 42.8 °F 76% 29.88 in 10.0 mi NNW 11.5 mph - N/A   Clear
5:35 AM 48.2 °F - 42.8 °F 82% 29.89 in 10.0 mi NNW 9.2 mph - N/A   Clear
5:55 AM 48.2 °F - 42.8 °F 82% 29.89 in 10.0 mi North 9.2 mph - N/A   Clear
6:15 AM 48.2 °F - 42.8 °F 82% 29.88 in 10.0 mi North 11.5 mph - N/A   Clear
6:35 AM 48.2 °F - 42.8 °F 82% 29.89 in 10.0 mi North 12.7 mph - N/A   Clear
6:55 AM 48.2 °F - 41.0 °F 76% 29.90 in 10.0 mi NNW 9.2 mph - N/A   Clear
7:15 AM 48.2 °F - 42.8 °F 82% 29.92 in 10.0 mi West 5.8 mph - N/A   Clear
7:35 AM 50.0 °F - 42.8 °F 76% 29.92 in 10.0 mi NNW 9.2 mph - N/A   Clear
7:55 AM 51.8 °F - 42.8 °F 71% 29.91 in 10.0 mi North 12.7 mph - N/A   Clear
8:15 AM 53.6 °F - 42.8 °F 67% 29.92 in 10.0 mi North 13.8 mph - N/A   Clear
8:35 AM 55.4 °F - 42.8 °F 63% 29.92 in 10.0 mi NNW 16.1 mph 19.6 mph N/A   Clear
8:55 AM 57.2 °F - 42.8 °F 59% 29.92 in 9.0 mi NNW 15.0 mph 19.6 mph N/A   Clear
9:15 AM 57.2 °F - 42.8 °F 59% 29.93 in 10.0 mi NNW 11.5 mph - N/A   Clear
9:35 AM 57.2 °F - 44.6 °F 63% 29.93 in 10.0 mi NNW 13.8 mph 18.4 mph N/A   Clear
9:55 AM 60.8 °F - 44.6 °F 55% 29.93 in 10.0 mi North 15.0 mph - N/A   Clear
10:15 AM 60.8 °F - 44.6 °F 55% 29.93 in 10.0 mi NNW 13.8 mph 21.9 mph N/A   Clear
10:35 AM 62.6 °F - 44.6 °F 52% 29.93 in 10.0 mi NW 13.8 mph 19.6 mph N/A   Clear
10:55 AM 62.6 °F - 44.6 °F 52% 29.93 in 10.0 mi NNW 13.8 mph 20.7 mph N/A   Clear
11:15 AM 64.4 °F - 44.6 °F 49% 29.93 in 10.0 mi NW 13.8 mph - N/A   Clear
11:35 AM 66.2 °F - 46.4 °F 49% 29.93 in 10.0 mi NW 13.8 mph 19.6 mph N/A   Clear
11:55 AM 66.2 °F - 46.4 °F 49% 29.93 in 10.0 mi NW 13.8 mph 19.6 mph N/A   Clear
12:15 PM 68.0 °F - 46.4 °F 46% 29.93 in 10.0 mi NW 11.5 mph 21.9 mph N/A   Clear
12:35 PM 69.8 °F - 46.4 °F 43% 29.92 in 10.0 mi NW 10.4 mph 19.6 mph N/A   Clear
12:55 PM 69.8 °F - 46.4 °F 43% 29.92 in 10.0 mi West 17.3 mph 24.2 mph N/A   Clear
1:15 PM 71.6 °F - 46.4 °F 41% 29.92 in 10.0 mi West 10.4 mph 19.6 mph N/A   Clear
1:35 PM 71.6 °F - 46.4 °F 41% 29.91 in 10.0 mi NW 12.7 mph 16.1 mph N/A   Clear
1:55 PM 73.4 °F - 46.4 °F 38% 29.90 in 10.0 mi WNW 12.7 mph 23.0 mph N/A   Clear
2:15 PM 73.4 °F - 44.6 °F 36% 29.90 in 10.0 mi WNW 8.1 mph 17.3 mph N/A   Clear
2:35 PM 75.2 °F - 44.6 °F 34% 29.89 in 10.0 mi NW 12.7 mph 16.1 mph N/A   Clear
2:55 PM 75.2 °F - 44.6 °F 34% 29.88 in 10.0 mi North 9.2 mph 17.3 mph N/A   Clear
3:15 PM 75.2 °F - 44.6 °F 34% 29.88 in 10.0 mi WNW 8.1 mph - N/A   Clear
3:35 PM 75.2 °F - 44.6 °F 34% 29.87 in 10.0 mi NW 13.8 mph - N/A   Clear
3:55 PM 78.8 °F - 44.6 °F 30% 29.87 in 10.0 mi NNW 10.4 mph 19.6 mph N/A   Clear
4:15 PM 78.8 °F - 42.8 °F 28% 29.86 in 10.0 mi West 4.6 mph - N/A   Clear
4:35 PM 78.8 °F - 44.6 °F 30% 29.86 in 10.0 mi NW 10.4 mph 16.1 mph N/A   Clear
4:55 PM 78.8 °F - 44.6 °F 30% 29.86 in 10.0 mi NNW 15.0 mph - N/A   Clear
5:15 PM 78.8 °F - 44.6 °F 30% 29.86 in 10.0 mi North 9.2 mph 19.6 mph N/A   Clear
5:35 PM 78.8 °F - 44.6 °F 30% 29.86 in 10.0 mi NW 12.7 mph 17.3 mph N/A   Clear
5:55 PM 78.8 °F - 44.6 °F 30% 29.86 in 10.0 mi WNW 6.9 mph - N/A   Clear
6:15 PM 78.8 °F - 44.6 °F 30% 29.86 in 10.0 mi NNW 11.5 mph - N/A   Clear
6:35 PM 78.8 °F - 44.6 °F 30% 29.86 in 10.0 mi NNW 9.2 mph - N/A   Clear
6:55 PM 78.8 °F - 44.6 °F 30% 29.87 in 10.0 mi NW 6.9 mph - N/A   Clear
7:15 PM 78.8 °F - 44.6 °F 30% 29.87 in 10.0 mi NW 9.2 mph - N/A   Clear
7:35 PM 75.2 °F - 46.4 °F 36% 29.87 in 10.0 mi NNE 8.1 mph - N/A   Clear
7:55 PM 75.2 °F - 46.4 °F 36% 29.88 in 10.0 mi NE 11.5 mph - N/A   Clear
8:15 PM 73.4 °F - 48.2 °F 41% 29.89 in 10.0 mi ENE 10.4 mph - N/A   Clear
8:35 PM 71.6 °F - 48.2 °F 43% 29.89 in 10.0 mi ENE 9.2 mph - N/A   Clear
8:55 PM 69.8 °F - 48.2 °F 46% 29.90 in 10.0 mi ENE 6.9 mph - N/A   Clear
9:15 PM 68.0 °F - 48.2 °F 49% 29.90 in 10.0 mi East 5.8 mph - N/A   Clear
9:35 PM 66.2 °F - 48.2 °F 52% 29.92 in 10.0 mi SE 8.1 mph - N/A   Clear
9:55 PM 62.6 °F - 48.2 °F 59% 29.93 in 10.0 mi SE 6.9 mph - N/A   Clear
10:15 PM 64.4 °F - 48.2 °F 56% 29.94 in 10.0 mi ESE 6.9 mph - N/A   Clear
10:35 PM 64.4 °F - 48.2 °F 56% 29.94 in 10.0 mi ESE 8.1 mph - N/A   Clear
10:55 PM 62.6 °F - 48.2 °F 59% 29.95 in 10.0 mi East 5.8 mph - N/A   Clear
11:15 PM 60.8 °F - 48.2 °F 63% 29.96 in 10.0 mi ENE 6.9 mph - N/A   Clear
11:35 PM 60.8 °F - 48.2 °F 63% 29.96 in 10.0 mi East 5.8 mph - N/A   Clear
11:55 PM 60.8 °F - 50.0 °F 68% 29.97 in 10.0 mi East 5.8 mph - N/A   Clear